Matecaña International Airport
SKPE : now visible

Airfield :











YOU CAN JOIN US ON...

 
LOGIN :

Register | Disclaimer

   EN    FR    IT 

 









Legend :    VFR   Marginal VFR   IFR   Intensive IFR   Very Intensive IFR
Visi :
Ceiling :
>= 8 km
>= 3000ft
5 to 8 km
1000 to 3000 ft
1500m to 5 km
500 to 1000 ft
800 to 1500m
200 to 500 ft
< 800m
< 200 ft
Symbols :   Thunderstorms  Fog  Heavy snow  Heavy precipitations  Wind > 20 kt






- Airport Elevation : 4416 ft
- IATA code : PEI


SKPE - Matecaña International

CURRENT METAR :
  • 301400Z 26004KT 9999 SCT012 SCT080 22/21 A3010

EXPIRED METARs :
  • 301300Z VRB02KT 9000 MIFG FEW010 SCT080 22/20 A3009

TAF TAF SKPE
Valid from the 30 at 12:00 until the 31 at 12:00 UTC


301030Z 3012/3112 10005KT 9999 SCT017 SCT080
BECMG 3016/3018 24007KT SCT017TCU BKN080
TEMPO 3020/3023 7000 -RADZ SCT015CB
BECMG 3023/3101 08004KT SCT017
TEMPO 3102/3107 7000 DZ SCT015TCU BKN080 TX29/3019Z TN19/3110Z



MET'MAP, your aeronautical weather chart ! - Copyright ORBIFLY December 2007 - Disclaimer

ORBIFLY MET'MAP TEAM :

Programming & Development : Alexandra Zaïnal
Concept & original design : Baudouin d'Aumeries
Assistance for programming : Marc-Olivier Méhu
Technical & hardware support : Manuel Goepfert

Contact : metmap@orbifly.com




SOURCES & CREDITS :

   NOAA       Earth
Advisory